Regional Weather Roundup
Issued by NWS

Home | Current Version | Previous Version | Graphics & Text | Print | Product List | Glossary On
Versions: 1 2 3 4 5 6 7 8 9 10 11 12 13 14 15 16 17 18 19 20 21 22 23 24 25 26 27 28 29 30 31 32 33 34 35 36 37 38 39 40 41 42 43 44 45 46 47 48 49 50
000
ASUS45 KTFX 311110
RWRMT
MONTANA REGIONAL WEATHER ROUNDUP
NATIONAL WEATHER SERVICE GREAT FALLS MT
500 AM MDT MON AUG 31 2015

NOTE: "FAIR" INDICATES FEW OR NO CLOUDS BELOW 12000 FEET WITH NO
SIGNIFICANT WEATHER AND/OR OBSTRUCTIONS TO VISIBILITY.

MTZ001>007-043-311200-
WEST OF THE DIVIDE

CITY           SKY/WX    TMP DP  RH WIND       PRES   REMARKS
KALISPELL      CLOUDY    46  42  86 SW6       30.00R
MISSOULA       CLOUDY    45  42  89 CALM      30.06F
BUTTE          PTCLDY    43  36  76 NW7       30.11S
MULLAN PASS    PTCLDY    39  36  89 MISG      30.07S
DEER LODGE       N/A     41  36  81 W3        30.11F
EUREKA           N/A     55  43  62 SE9       29.96F
HAMILTON         N/A     50  41  71 SW6       30.07S
LIBBY            N/A     48  48 100 CALM      29.99S VSB 1/4
PLAINS           N/A     53  41  64 CALM      30.03R
$$

MTZ008-052>055-311200-
SOUTHWEST MONTANA

CITY           SKY/WX    TMP DP  RH WIND       PRES   REMARKS
BOZEMAN        PTCLDY    42  38  85 S7        30.05F
DILLON         PTCLDY    46  34  62 SW9       30.07S
W YELLOWSTONE  CLEAR     36  23  60 CALM      30.15R
$$

MTZ009-010-012-014-046-048-049-054-311200-
EAST SLOPES AND CENTRAL MONTANA

CITY           SKY/WX    TMP DP  RH WIND       PRES   REMARKS
CUT BANK       PTCLDY    53  34  48 SW20G35   29.84F
GREAT FALLS    PTCLDY    53  33  46 SW18G28   29.92R
MALMSTROM AFB  PTCLDY    54  33  46 SW23G32   29.91R
HELENA         PTCLDY    55  34  45 W10       30.02S
CONRAD           N/A     40  34  79 CALM      29.90S
$$

MTZ011-013-016-021-045-047-050-051-311200-
NORTH CENTRAL MONTANA

CITY           SKY/WX    TMP DP  RH WIND       PRES   REMARKS
HAVRE          CLEAR     53  34  48 MISG      29.84S
LEWISTOWN      PTCLDY    47  37  68 S5        29.95R
N BAR RANCH      N/A     48  36  61 SW5       29.97R
CHINOOK          N/A     55  36  47 SW14      29.83S
FORT BENTON      N/A     57  34  41 S13G18    29.90R
$$

MTZ017>020-022>027-061-062-311200-
NORTHEAST MONTANA

CITY           SKY/WX    TMP DP  RH WIND       PRES   REMARKS
GLASGOW        CLEAR     53  47  79 W13       29.82R
JORDAN           N/A     51  46  83 W6        29.89R
SIDNEY         CLOUDY    61  54  77 CALM      29.82R
WOLF POINT     PTCLDY    57  53  86 W9        29.83R
MALTA            N/A     49  43  80 CALM      29.82R
PLENTYWOOD       N/A     59  54  82 SW3       29.75S
POPLAR           N/A     57  54  88 S5        29.81R
$$

MTZ028>42-056>058-311200-
SOUTHCENTRAL AND SOUTHEAST MONTANA

CITY           SKY/WX    TMP DP  RH WIND       PRES   REMARKS
BAKER          MOCLDY    58  52  80 NW10      29.90R
BILLINGS       CLEAR     54  43  66 S7        29.98R
LIVINGSTON     CLEAR     50  36  58 W5        30.02R
MILES CITY     PTCLDY    55  49  80 W7        29.91R
EKALAKA          N/A     57  50  78 NW7       29.92R
FORSYTH          N/A     59  46  63 SW5       29.93R
LAUREL           N/A     52  37  56 CALM      29.96S
$$

REGIONAL REPORTS...DAKOTAS

CITY           SKY/WX    TMP DP  RH WIND       PRES   REMARKS
WILLISTON        N/A    N/A N/A N/A MISG      29.79R
MINOT          LGT RAIN  62  59  90 N5        29.68F
DICKINSON      MOCLDY    60  57  89 W13       29.79R
CROSBY         CLOUDY    59  55  88 NW14      29.77F
BISMARCK       CLOUDY    69  57  65 N13       29.69R
GRAND FORKS    PTCLDY    65  61  87 S9        29.63F
FARGO          CLEAR     66  59  78 SE15G28   29.65F
BUFFALO SD       N/A     62  54  74 NW17      29.78R
RAPID CITY     CLOUDY    76  50  40 W12       29.79R
$$

REGIONAL REPORTS...WYOMING/IDAHO/WASHINGTON

CITY           SKY/WX    TMP DP  RH WIND       PRES   REMARKS
GILLETTE       CLOUDY    61  48  62 NW16      29.98R
SHERIDAN       PTCLDY    56  42  59 W10       30.02R
BUFFALO WY     MOCLDY    56  43  61 N22G37    30.01R
CODY           CLEAR     52  37  58 SE3       30.02F
YELLOWSTONE LA   N/A     35  27  72 CALM      30.21R
IDAHO FALLS    CLEAR     49  37  63 SW10      30.09R
SALMON         PTCLDY    48  37  66 S6        30.09S
BOISE          CLEAR     56  44  64 CALM      30.06S
SPOKANE        MOCLDY    51  43  74 S9        30.00R
$$

REGIONAL REPORTS...ALBERTA

CITY           SKY/WX    TMP DP  RH WIND       PRES   REMARKS
EDMONTON       CLEAR     46  39  76 SW6       29.52S
CALGARY        MOCLDY    55  32  41 W5        29.67R
LETHBRIDGE     CLEAR     55  36  47 W15G35    29.77S
MEDICINE HAT   CLEAR     52  37  58 SW16G22   29.72S
WATERTON GATE    N/A     54  34  47 SW20G36     N/A
CARDSTON         N/A     55  28  35 W18G29      N/A
MILK RIVER       N/A     50  34  53 W10         N/A
ONEFOUR          N/A     50  36  57 SW9         N/A
$$

REGIONAL REPORTS...SASKATCHEWAN

CITY           SKY/WX    TMP DP  RH WIND       PRES   REMARKS
SWIFT CURRENT  CLEAR     54  37  54 SW22G30   29.68R
REGINA         CLOUDY    55  54  94 S8        29.68F
SASKATOON      PTCLDY    57  41  54 SW14      29.54F
CYPRESS HILLS    N/A     43  34  70 SW8         N/A
VAL MARIE        N/A     48  39  71 W13         N/A
ROCKGLEN         N/A     50  45  81 SW17        N/A
$$


USA.gov is the U.S. government's official web portal to all federal, state and local government web resources and services.